Dalhart, TX

9:51 AM CDT on October 20, 2017 (GMT -0500)
Dalhart Municipal

Weather History for KDHT - November, 2013

Change the Weather History Date:

Thursday, November 14, 2013

  Actual Average Record
Temperature  
Mean Temperature 48 °F 45 °F  
Max Temperature 63 °F 61 °F 80 °F (1989)
Min Temperature 33 °F 29 °F 5 °F (1959)
Degree Days  
Heating Degree Days 17 20  
Month to date heating degree days 241 245  
Since 1 July heating degree days 544 605  
Cooling Degree Days 0 0  
Month to date cooling degree days 0 0  
Year to date cooling degree days 1576 1138  
Moisture  
Dew Point 31 °F    
Average Humidity 60    
Maximum Humidity 89    
Minimum Humidity 30    
Precipitation  
Precipitation 0.00 in 0.01 in 0.82 in (1961)
Month to date precipitation 0.40 0.35  
Year to date precipitation 7.18 16.82  
Snow  
Snow 0.00 in 0.00 in 8.00 in (1961)
Month to date snowfall 0.0 0.4  
Since 1 July snowfall T 1.0  
Since 1 September snowfall T 1.0  
Snow Depth 0.00 in    
Sea Level Pressure  
Sea Level Pressure 29.93 in    
Wind  
Wind Speed 12 mph (NW)    
Max Wind Speed 32 mph    
Max Gust Speed 38 mph    
Visibility 10 miles    
Events      
T = Trace of Precipitation, MM = Missing Value Source: NWS Daily Summary

Daily Weather History Graph

Daily Weather History Graph

Search for Another Location

Airport or City:

Trip Planner

Search our weather history database for the weather conditions in past years. The results will help you decide how hot, cold, wet, or windy it might be!

Date:

Astronomy

Nov. 14, 2013 Rise Set
Actual Time 7:26 AM CST 5:42 PM CST
Civil Twilight 6:58 AM CST 6:10 PM CST
Nautical Twilight 6:27 AM CST 6:41 PM CST
Astronomical Twilight 5:57 AM CST 7:11 PM CST
Moon 4:01 PM CST (11/14) 4:28 AM CST (11/14)
Length of Visible Light 11h 11m
Length of Day
10h 16m
Waxing Gibbous, 92% of the Moon is Illuminated
Nov 14
Waxing Gibbous
Nov 17
Full
Nov 25
Last Quarter
Dec 2
New
Dec 9
First Quarter

Hourly Weather History & Observations

Time (CST) Temp. Windchill Dew Point Humidity Pressure Visibility Wind Dir Wind Speed Gust Speed Precip Events Conditions
12:53 AM 46.0 °F 38.8 °F 30.0 °F 54% 30.01 in 10.0 mi SSW 18.4 mph 25.3 mph N/A   Clear
1:53 AM 44.1 °F 35.9 °F 30.9 °F 60% 29.98 in 10.0 mi SSW 19.6 mph - N/A   Clear
2:53 AM 44.1 °F 37.1 °F 32.0 °F 63% 29.96 in 10.0 mi SSW 15.0 mph - N/A   Clear
3:53 AM 43.0 °F 36.8 °F 32.0 °F 65% 29.94 in 10.0 mi SW 11.5 mph - N/A   Clear
4:53 AM 42.1 °F 36.1 °F 32.0 °F 67% 29.92 in 10.0 mi SSW 10.4 mph - N/A   Clear
5:53 AM 39.9 °F 35.8 °F 32.0 °F 73% 29.93 in 10.0 mi SSW 5.8 mph - N/A   Clear
6:53 AM 39.0 °F 33.4 °F 32.0 °F 76% 29.94 in 10.0 mi SW 8.1 mph - N/A   Clear
7:53 AM 34.0 °F 28.8 °F 30.0 °F 85% 29.95 in 10.0 mi SSW 5.8 mph - N/A   Clear
8:53 AM 39.9 °F - 33.1 °F 77% 29.96 in 10.0 mi Calm Calm - N/A   Clear
9:53 AM 50.0 °F - 33.1 °F 52% 29.95 in 10.0 mi North 11.5 mph - N/A   Clear
10:53 AM 57.9 °F - 28.0 °F 32% 29.93 in 10.0 mi North 28.8 mph 36.8 mph N/A   Clear
11:53 AM 57.0 °F - 28.9 °F 34% 29.92 in 10.0 mi North 21.9 mph - N/A   Clear
12:53 PM 62.1 °F - 30.0 °F 30% 29.88 in 10.0 mi North 21.9 mph - N/A   Clear
1:53 PM 62.1 °F - 30.0 °F 30% 29.86 in 10.0 mi NNE 19.6 mph 27.6 mph N/A   Clear
2:53 PM 62.1 °F - 30.0 °F 30% 29.86 in 10.0 mi North 19.6 mph - N/A   Clear
3:53 PM 61.0 °F - 30.0 °F 31% 29.87 in 10.0 mi North 20.7 mph - N/A   Clear
4:53 PM 57.9 °F - 30.0 °F 35% 29.88 in 10.0 mi NNE 15.0 mph - N/A   Clear
5:53 PM 53.1 °F - 30.9 °F 43% 29.90 in 10.0 mi NNE 8.1 mph - N/A   Clear
6:53 PM 48.9 °F - 30.9 °F 50% 29.94 in 10.0 mi North 4.6 mph - N/A   Clear
7:53 PM 46.0 °F 43.1 °F 30.9 °F 56% 29.97 in 10.0 mi NW 5.8 mph - N/A   Overcast
8:53 PM 42.1 °F 40.2 °F 30.9 °F 65% 29.97 in 10.0 mi NNW 3.5 mph - N/A   Clear
9:53 PM 37.9 °F - 28.9 °F 70% 29.96 in 10.0 mi Calm Calm - N/A   Clear
10:53 PM 36.0 °F 32.1 °F 28.0 °F 73% 29.93 in 10.0 mi WNW 4.6 mph - N/A   Clear
11:53 PM 36.0 °F 33.3 °F 28.0 °F 73% 29.92 in 10.0 mi WNW 3.5 mph - N/A   Clear